STARLINK-34412 (66132 NORAD) Tracking and Keplerian Element Data

This shows tracking and keplerian element data for the satellite.

Feedback or suggestion? Click here.




ElementValue
Catalog66132
NameSTARLINK-34412
Epoch Orbit1025
Epoch Day353.88669083
Epoch Year2025
RAAN53.7573
Inclination53.1608
Eccentricity0.0001288
Argument of Perigee84.8098
Mean Anonmoly275.3054
Mean Motion15.39631725
Decay Rate0.00029163
L11 66132U 25237U 25353.88669083 .00029163 00000+0 73598-3 0 9998
L22 66132 53.1608 53.7573 0001288 84.8098 275.3054 15.39631725 10255



Live tracking and technical data element details for STARLINK-34412 (NORAD 66132). STARLINK-34412 can be tracked NOW for your location showing map with azimuth and elevation plus other details from your city location.







IsCatalogInMostPopularTable: catalog: 66132, numindb: 9
Update: records affected: 1



GetName: 66132 STARLINK-34412

Hit Count: updated at: Tue, 21 Apr 2026 19:59:06 GMT